星链-5679 (STARLINK-5679 )

导读

STARLINK-5679是美国SpaceX公司星链星座的成员,于2023年2月2日发射。作为低轨宽带通信卫星,它采用平板设计与氪工质霍尔推进器,依托Ku、Ka波段通信技术,旨在为全球尤其是偏远地区提供高速低延迟互联网服务。星链卫星具备自主避撞能力,寿命末期会主动离轨坠入大气层烧毁,单星设计寿命约5-7年。

Basic Information
目录编号:
55467
目录名称:
STARLINK-5679
国际标识:
2023-015U
轨道中心:
EARTH
卫星名称:
星链-5679
卫星全名:
星链-5679 (STARLINK-5679 )
卫星状态:
在轨 (已飞行1229 天)
发射日期:
2023-02-02 UTC
国别 :
美国 (US)
星等 :
--
Orbit Information
数据来源 国际轨道数据 AOE轨道数据
星历时间 2026-06-14T23:33:22+0800
12小时前
查看轨道信息
2026-06-14T02:00:00+0800
1天前
查看轨道信息
半长轴 6861.25km 6861.247km
偏心率 0.0000801 0.0000274
轨道倾角 43.002° 43.003°
近地点辐角 268.709° 160.458°
升交点赤经 140.885° 145.958°
平近点角 91.367° 294.619°
近地点 482.563km 482.922km
远地点 483.663km 483.298km
周期 94.268分钟 94.268分钟
每日圈数 15.275589 15.275599
Detailed Information
固有亮度:
5
最大亮度:
2.5
卫星平台:
Starlink v1.5
覆盖范围:
全球
运营商:
太空探索技术公司
运营商所在国:
美国
制造商(研发单位):
太空探索技术公司
制造商所在国:
美国
使用方式:
暂无
Satellite Introduction
星链(Starlink)计划是由太空探索技术公司(SpaceX)提出的一个巨型低轨卫星互联网星座项目,计划在2019年至2024年间在太空搭建由约1.2万颗卫星组成的“星链”网络,其中1584颗将部署在地球上空550千米处的近地轨道,并从2020年开始工作。该卫星仍在工作。
2D Orbit Map
3D Orbit Map
Orbit Altitude Analysis Chart
Orbit Inclination Analysis Chart
Orbit Comprehensive Analysis Chart
View Comprehensive Chart